AirNav   Air Wisconsin Up To $57,000 Bonus
 
 1402 users online  

6R5 Alvin Airpark
Alvin, Texas, USA

GOING TO ALVIN?


FAA INFORMATION EFFECTIVE 25 FEBRUARY 2021

Location

FAA Identifier: 6R5
Lat/Long: 29-24-53.1000N 095-17-20.1000W
29-24.885000N 095-17.335000W
29.4147500,-95.2889167
(estimated)
Elevation: 43 ft. / 13 m (estimated)
Variation: 06E (1985)
From city: 3 miles W of ALVIN, TX
Time zone: UTC -6 (UTC -5 during Daylight Saving Time)
Zip code: 77511

Airport Operations

Airport use: Open to the public
Activation date: 09/1959
Control tower: no
ARTCC: HOUSTON CENTER
FSS: MONTGOMERY COUNTY FLIGHT SERVICE STATION
NOTAMs facility: CXO (NOTAM-D service available)
Attendance: UNATNDD
Wind indicator: yes
Segmented circle: no

Airport Communications

CTAF: 122.9
WX ASOS at LVJ (7 nm N): 118.525 (281-992-1853)
WX AWOS-3 at AXH (11 nm NW): 123.625 (281-431-6572)
WX AWOS-3 at EFD (13 nm NE): 135.575 (713-847-4430)
WX ASOS at HOU (14 nm N): PHONE 713-847-1462
WX AWOS-3PT at T41 (19 nm NE): 120.275 (281-471-2206)

Nearby radio navigation aids

VOR radial/distance  VOR name  Freq  Var
VUHr286/23.7SCHOLES VOR/DME113.0006E
MHFr247/29.4TRINITY VOR/DME113.6007E
IAHr170/32.7HUMBLE VORTAC116.6005E

Airport Services

Parking: hangars and tiedowns

Runway Information

Runway 6/24

Dimensions: 1500 x 80 ft. / 457 x 24 m
Surface: turf, in poor condition
RWY DEFINED BY MOWING. DIFFICULT TO DETERMINE RWY DIMENSIONS. RWY SFC ROUGH & UNEVEN.
RUNWAY 6  RUNWAY 24
Latitude: 29-24.873632N29-24.952375N
Longitude: 095-17.473242W095-17.205188W
Elevation: 41.0 ft.42.0 ft.
Traffic pattern: leftleft
Runway heading: 065 magnetic, 071 true245 magnetic, 251 true
Obstructions: 34 ft. pline, 55 ft. left of centerline50 ft. trees

Runway 3/21

Dimensions: 1420 x 75 ft. / 433 x 23 m
Surface: turf, in poor condition
RWY DEFINED BY MOWING. DIFFICULT TO DETERMINE RWY DIMENSIONS. RWY SFC ROUGH & UNEVEN.
RUNWAY 3  RUNWAY 21
Latitude: 29-24.794085N29-24.972068N
Longitude: 095-17.366012W095-17.191893W
Elevation: 41.0 ft.41.0 ft.
Traffic pattern: leftleft
Runway heading: 035 magnetic, 041 true215 magnetic, 221 true
Obstructions: 30 ft. trees, 35 ft. right of centerline36 ft. trees, 50 ft. left of centerline

Runway 12/30

Dimensions: 830 x 60 ft. / 253 x 18 m
Surface: turf, in poor condition
RWY DEFINED BY MOWING. DIFFICULT TO DETERMINE RWY DIMENSIONS. RWY SFC ROUGH & UNEVEN.
RUNWAY 12  RUNWAY 30
Latitude: 29-24.884553N29-24.794608N
Longitude: 095-17.478783W095-17.360790W
Elevation: 42.0 ft.41.0 ft.
Traffic pattern: leftleft
Runway heading: 125 magnetic, 131 true305 magnetic, 311 true
Obstructions: 34 ft. pline50 ft. trees, 60 ft. right of centerline

Airport Ownership and Management from official FAA records

Ownership: Privately-owned
Owner: RSNMART PROPERTIES, LLC
2102 CHERRY HILL DR
LEAGUE CITY, TX 77573
Phone (713) 208-8707
Manager: RANDY SMART
12357 CR 280
ALVIN, TX 77511
Phone (713) 208-8707

Airport Operational Statistics

Aircraft based on the field: 16
Single engine airplanes: 3
Ultralights: 13
    

Additional Remarks

RWY 03 +6 FT FENCE 40 FT SE OF CNTRLN ALG SOUTHEAST EDGE. +50 FT TREES ALG RWY 03 RIGHT OF CNTRLN.
RWY 21 +6 FT FENCE 20 FT FM THR 0B. +30 FT TREES ALONG RWY 21 LEFT OF CNTRLN.
RADIO CONTROL MODEL ACFT OPERATING AREA ADJACENT TO ARPT, NW
ALL RWYS DEFINED BY MOWING. NO MARKERS. RWY NOT MOWED.
6 FT FENCE ARND ARPT PERIMETER. ALL GATES LOCKED.
FOR CD CTC HOUSTON APCH AT 281-443-5844 TO CNL IFR CALL 281-443-5888.

Instrument Procedures

There are no published instrument procedures at 6R5.

Some nearby airports with instrument procedures:

KLVJ - Pearland Regional Airport (7 nm N)
KAXH - Houston Southwest Airport (11 nm NW)
KEFD - Ellington Airport (13 nm NE)
KHOU - William P Hobby Airport (14 nm N)
T41 - La Porte Municipal Airport (19 nm NE)
 
Loc | Ops | Rwys | IFR | FBO | Links
Com | Nav | Svcs | Stats | Notes
Area around 6R5 (Alvin Airpark)
 
Road maps at: MapQuest Bing Google
 
Aerial photo
WARNING: Photo may not be current or correct
Aerial photo of 6R5 (Alvin Airpark)
Do you have a better or more recent aerial photo of Alvin Airpark that you would like to share? If so, please send us your photo.

 
Sectional chart

 
Airport distance calculator
Flying to Alvin Airpark? Find the distance to fly.

From to 6R5

Sunrise and sunset
Times for 05-Mar-2021
 Local
(UTC-6)
 Zulu
(UTC)
Morning civil twilight06:2012:20
Sunrise06:4312:43
Sunset18:2200:22
Evening civil twilight18:4600:46

Current date and time
Zulu (UTC)  05-Mar-2021 18:11:44
Local (UTC-6)  05-Mar-2021 12:11:44
 
METAR
KLVJ 
6nm N 
051753Z AUTO 19006KT 10SM FEW016 OVC027 19/16 A2998 RMK AO2 RAB34E51 SLP151 P0000 60000 T01940161 10194 20144 58009
KAXH 
11nm NW 
051735Z AUTO 18004KT 10SM OVC027 20/17 A2998 RMK AO2 T01990165
KEFD 
13nm NE 
051750Z 16012KT 10SM BKN015 OVC025 20/16 A2996
KHOU 
13nm N 
051753Z 18010KT 10SM SCT017 OVC026 20/16 A2996 RMK AO2 SLP150 60001 T02000156 10200 20150 58011
KT41 
19nm NE 
051735Z AUTO 12008KT 10SM OVC029 18/17 A2998 RMK AO2 T01820168
TAF
KEFD 
13nm NE 
051200Z 0512/0618 VRB06KT 9999 BKN025 QNH2986INS BECMG 0523/0524 VRB06KT 8000 BR OVC006 QNH2996INS BECMG 0612/0613 03012KT 9999 NSW BKN012 QNH3015INS BECMG 0615/0616 03010G15KT 9999 SKC QNH3029INS TX19/0520Z TN11/0512Z
KHOU 
13nm N 
051121Z 0512/0612 VRB04KT P6SM BKN025 BKN250 FM051600 16005KT P6SM VCSH OVC020 FM052100 21006KT P6SM BKN028 FM060200 02008KT P6SM BKN035 FM060500 03010KT P6SM BKN015
NOTAMs
Click for the latest NOTAMs
NOTAMs are issued by the DoD/FAA and will open in a separate window not controlled by AirNav.

 

 
 

Would you like to see your business listed on this page?

 If your business provides an interesting product or service to pilots, flight crews, aircraft, or users of the Alvin Airpark, you should consider listing it here.  To start the listing process, click on the button below
 
Add a business
 

Other Pages about Alvin Airpark

Update a link
 
Copyright © AirNav, LLC. All rights reserved. Privacy Policy  Contact